(316700) = 1996 VQ9 = 2007 DK62 = 2008 LR8

Discovered at Kitt Peak on 1996-11-03 by Spacewatch.

Orbit

Orbit type: Main Belt

Note: WebGL enabled browser required.

epoch2023-09-13.0
epoch JD2460200.5
perihelion date2023-02-22.87470
perihelion JD2459998.37470
argument of perihelion (°)226.70663
ascending node (°)120.23050
inclination (°)7.51055
eccentricity0.0695068
perihelion distance (AU)2.5405203
Tisserand w.r.t. Jupiter3.3
ΔV w.r.t. Earth (km/sec)10.2
semimajor axis (AU)2.7302943
mean anomaly (°)44.15810
mean daily motion (°/day)0.21846890
aphelion distance (AU)2.920
period (years)4.51
P-vector [x]0.96872743
P-vector [y]-0.17241075
P-vector [z]-0.17844242
Q-vector [x]0.22093718
Q-vector [y]0.92667581
Q-vector [z]0.30407023
absolute magnitude16.67
phase slope0.15
uncertainty0
referenceMPEC 2024-A141
observations used306
oppositions16
arc length (days)9930
first opposition used1996
last opposition used2024
residual rms (arc-secs)0.74
perturbers coarse indicatorM-v
perturbers precise indicator003Ek
first observation date used1996-11-03.0
last observation date used2024-01-11.0
computer nameMPCLINUX
JD of orbit computation2456966.837385
perihelion JD uncertainty (days)1.1445E-04
argument of perihelion uncertainty (°)3.5873E-05
ascending node uncertainty (°)2.5774E-05
inclination uncertainty (°)2.7836E-06
eccentricity uncertainty 2.6526E-08
perihelion distance uncertainty (AU)7.4958E-08
Minimum Orbit Intersection Distances (in AU)
for orbit epoch: 2460200.5, reference: E2024-AE1
Mercury2.14367
Venus1.81375
Earth1.53833
Mars1.16369
Jupiter2.37649
Saturn6.25631
Uranus15.5371
Neptune27.2397

Observations

314 total observations over interval: 1996 11 03.34666 – 2024 01 11.154546
These data are available for download (format description).

Date (UT) J2000 RA J2000 Dec Magn Location Ref
1996 11 03.34666 04 00 27.36 +09 31 13.8 20.9 V 691 – Steward Observatory, Kitt Peak-Spacewatch MPC 28440
1996 11 03.36793 04 00 26.29 +09 31 09.8 20.8 V 691 – Steward Observatory, Kitt Peak-Spacewatch MPC 28440
1996 11 03.38935 04 00 25.26 +09 31 06.4 21.1 V 691 – Steward Observatory, Kitt Peak-Spacewatch MPC 28440
1996 11 09.24428 03 55 30.78 +09 15 30.6 16.7 V 691 – Steward Observatory, Kitt Peak-Spacewatch MPS 22090
1996 11 09.26541 03 55 29.56 +09 15 34.0 20.3 V 691 – Steward Observatory, Kitt Peak-Spacewatch MPS 22090
1996 11 09.28669 03 55 28.45 +09 15 30.5 20.3 V 691 – Steward Observatory, Kitt Peak-Spacewatch MPS 22090
1996 11 10.42951 03 54 27.58 +09 12 44.2 20.3 V 691 – Steward Observatory, Kitt Peak-Spacewatch MPC 28440
1996 11 10.44066 03 54 26.97 +09 12 42.6 20.3 V 691 – Steward Observatory, Kitt Peak-Spacewatch MPC 28440
1996 11 10.45017 03 54 26.44 +09 12 41.2 20.4 V 691 – Steward Observatory, Kitt Peak-Spacewatch MPC 28440
1996 11 12.36807 03 52 43.18 +09 08 14.8 20.8 V 691 – Steward Observatory, Kitt Peak-Spacewatch MPC 28440
1996 11 12.37578 03 52 42.77 +09 08 13.8 20.3 V 691 – Steward Observatory, Kitt Peak-Spacewatch MPC 28440
1996 11 12.38359 03 52 42.33 +09 08 12.7 20.6 V 691 – Steward Observatory, Kitt Peak-Spacewatch MPC 28440
1999 05 20.33358 16 11 25.75 -10 46 25.5 20.5 V 691 – Steward Observatory, Kitt Peak-Spacewatch MPS 252715
1999 05 20.35479 16 11 24.59 -10 46 23.8 20.7 V 691 – Steward Observatory, Kitt Peak-Spacewatch MPS 252715
1999 05 20.37627 16 11 23.41 -10 46 21.7 19.7 V 691 – Steward Observatory, Kitt Peak-Spacewatch MPS 252715
2000 09 05.430350 00 14 30.317 -09 02 16.45 20.30 V 645 – Apache Point-Sloan Digital Sky Survey MPS 252715
2000 09 05.433822 00 14 30.177 -09 02 18.04 21.11   645 – Apache Point-Sloan Digital Sky Survey MPS 252715
2003 04 09.30556 13 04 54.56 +05 03 28.7 21.3 V 691 – Steward Observatory, Kitt Peak-Spacewatch MPS 252715
2003 04 09.33177 13 04 53.23 +05 03 37.3 21.4 V 691 – Steward Observatory, Kitt Peak-Spacewatch MPS 252715
2003 04 09.35892 13 04 51.88 +05 03 46.1 21.6 V 691 – Steward Observatory, Kitt Peak-Spacewatch MPS 252715
2004 06 11.38321 20 10 11.20 -17 17 34.5 22.4 V 691 – Steward Observatory, Kitt Peak-Spacewatch MPS 252715
2004 06 11.41180 20 10 10.63 -17 17 39.2 21.5 V 691 – Steward Observatory, Kitt Peak-Spacewatch MPS 252715
2004 06 11.44049 20 10 10.11 -17 17 44.0 22.2 V 691 – Steward Observatory, Kitt Peak-Spacewatch MPS 252715
2007 02 08.24931 10 26 34.61 +15 23 40.1   691 – Steward Observatory, Kitt Peak-Spacewatch MPS 252715
2007 02 08.26700 10 26 33.75 +15 23 47.7   691 – Steward Observatory, Kitt Peak-Spacewatch MPS 252715
2007 02 08.28479 10 26 32.93 +15 23 55.2   691 – Steward Observatory, Kitt Peak-Spacewatch MPS 252715
2007 02 21.19086 10 15 59.17 +16 54 19.0 20.7 V 691 – Steward Observatory, Kitt Peak-Spacewatch MPS 201640
2007 02 21.20927 10 15 58.20 +16 54 26.0 20.9 V 691 – Steward Observatory, Kitt Peak-Spacewatch MPS 201640
2007 02 21.22502 10 15 57.37 +16 54 32.3 20.7 V 691 – Steward Observatory, Kitt Peak-Spacewatch MPS 201640
2007 02 25.18971 10 12 36.02 +17 20 30.8 21.0 V 691 – Steward Observatory, Kitt Peak-Spacewatch MPS 201640
2007 02 25.21433 10 12 34.74 +17 20 40.7 21.1 V 691 – Steward Observatory, Kitt Peak-Spacewatch MPS 201640
2007 02 25.24196 10 12 33.32 +17 20 51.0 20.9 V 691 – Steward Observatory, Kitt Peak-Spacewatch MPS 201640
2008 05 05.37212 16 15 28.89 -10 46 06.1 20.7 V 691 – Steward Observatory, Kitt Peak-Spacewatch MPS 252715
2008 05 05.39326 16 15 27.93 -10 46 03.0 20.5 V 691 – Steward Observatory, Kitt Peak-Spacewatch MPS 252715
2008 05 05.41091 16 15 27.10 -10 46 00.5 20.5 V 691 – Steward Observatory, Kitt Peak-Spacewatch MPS 252715
2008 05 16.33475 16 06 34.70 -10 22 02.5 20.3 V 691 – Steward Observatory, Kitt Peak-Spacewatch MPS 252715
2008 05 16.35247 16 06 33.70 -10 22 00.2 20.6 V 691 – Steward Observatory, Kitt Peak-Spacewatch MPS 252715
2008 05 16.37019 16 06 32.77 -10 21 57.9 20.8 V 691 – Steward Observatory, Kitt Peak-Spacewatch MPS 252715
2008 05 26.38199 15 57 40.22 -10 07 08.8 20.6 V 691 – Steward Observatory, Kitt Peak-Spacewatch MPS 252715
2008 05 26.39961 15 57 39.26 -10 07 08.1 20.3 V 691 – Steward Observatory, Kitt Peak-Spacewatch MPS 252715
2008 05 26.41721 15 57 38.29 -10 07 06.6 20.6 V 691 – Steward Observatory, Kitt Peak-Spacewatch MPS 252715
2008 06 07.33798 15 47 30.60 -10 01 52.5 20.6 V 691 – Steward Observatory, Kitt Peak-Spacewatch MPS 251462
2008 06 07.35564 15 47 29.74 -10 01 52.6 20.9 V 691 – Steward Observatory, Kitt Peak-Spacewatch MPS 251462
2008 06 07.37330 15 47 28.89 -10 01 52.7 20.5 V 691 – Steward Observatory, Kitt Peak-Spacewatch MPS 251462
2008 06 08.22233 15 46 49.33 -10 02 06.3 21.3 V 691 – Steward Observatory, Kitt Peak-Spacewatch MPS 251462
2008 06 08.23742 15 46 48.59 -10 02 06.8 20.8 V 691 – Steward Observatory, Kitt Peak-Spacewatch MPS 251462
2008 06 08.25251 15 46 47.84 -10 02 07.1 20.5 V 691 – Steward Observatory, Kitt Peak-Spacewatch MPS 251462
2012 01 02.51494 13 05 42.93 -00 04 00.9 21.1 V G96 – Mt. Lemmon Survey MPS 405905
2012 01 02.52016 13 05 43.15 -00 04 00.9 21.5 V G96 – Mt. Lemmon Survey MPS 405905
2012 01 02.52537 13 05 43.44 -00 04 01.7 21.6 V G96 – Mt. Lemmon Survey MPS 405905
2012 04 15.34702 12 54 33.733 +06 04 31.36 21.1 g F51 – Pan-STARRS 1, Haleakala MPS 421805
2012 04 15.35847 12 54 33.195 +06 04 34.20 20.9 g F51 – Pan-STARRS 1, Haleakala MPS 421805
2012 04 28.16079 12 45 35.56 +06 46 35.1 20.4 V G96 – Mt. Lemmon Survey MPS 423654
2012 04 28.16767 12 45 35.28 +06 46 36.4 20.8 V G96 – Mt. Lemmon Survey MPS 423654
2012 04 28.17449 12 45 35.02 +06 46 37.6 20.9 V G96 – Mt. Lemmon Survey MPS 423654
2012 04 28.18140 12 45 34.77 +06 46 38.6 20.6 V G96 – Mt. Lemmon Survey MPS 423654
2013 07 01.47441 19 55 05.589 -18 39 31.73 20.1 r F51 – Pan-STARRS 1, Haleakala MPS 471760
2013 07 01.48473 19 55 05.087 -18 39 34.76 20.1 r F51 – Pan-STARRS 1, Haleakala MPS 471760
2013 07 01.49539 19 55 04.592 -18 39 37.72 19.9 i F51 – Pan-STARRS 1, Haleakala MPS 471760
2013 07 01.50715 19 55 04.035 -18 39 41.10 19.9 i F51 – Pan-STARRS 1, Haleakala MPS 471760
2013 07 14.44497 19 44 18.623 -19 45 33.56 20.2 g F51 – Pan-STARRS 1, Haleakala MPS 472595
2013 07 14.45577 19 44 18.020 -19 45 36.78 20.5 g F51 – Pan-STARRS 1, Haleakala MPS 472595
2013 07 15.41075 19 43 27.341 -19 50 39.82 19.7 r F51 – Pan-STARRS 1, Haleakala MPS 472595
2013 07 15.42007 19 43 26.818 -19 50 42.86 19.8 r F51 – Pan-STARRS 1, Haleakala MPS 472595
2014 09 20.52639 04 01 58.741 +10 49 29.62 21.1 w F51 – Pan-STARRS 1, Haleakala MPS 536264
2014 09 20.53876 04 01 58.926 +10 49 28.12 21.3 w F51 – Pan-STARRS 1, Haleakala MPS 536264
2014 09 20.55116 04 01 59.098 +10 49 26.63 21.2 w F51 – Pan-STARRS 1, Haleakala MPS 536264
2014 09 20.56348 04 01 59.282 +10 49 25.07 21.1 w F51 – Pan-STARRS 1, Haleakala MPS 536264
2014 10 25.52344 03 54 50.167 +09 05 40.85 20.4 w F51 – Pan-STARRS 1, Haleakala MPS 544070
2014 10 25.53635 03 54 49.635 +09 05 38.32 20.4 w F51 – Pan-STARRS 1, Haleakala MPS 544070
2014 10 25.54925 03 54 49.101 +09 05 35.74 20.5 w F51 – Pan-STARRS 1, Haleakala MPS 544070
2014 10 25.56218 03 54 48.575 +09 05 33.08 20.4 w F51 – Pan-STARRS 1, Haleakala MPS 544070
2014 11 12.45483 03 40 20.212 +08 12 37.76 20.0 r F51 – Pan-STARRS 1, Haleakala MPS 545553
2014 11 12.46720 03 40 19.531 +08 12 35.74 20.2 r F51 – Pan-STARRS 1, Haleakala MPS 545553
2014 11 12.47929 03 40 18.843 +08 12 34.18 20.1 r F51 – Pan-STARRS 1, Haleakala MPS 545553
2014 11 12.49127 03 40 18.149 +08 12 32.47 19.9 r F51 – Pan-STARRS 1, Haleakala MPS 545553
2014 11 17.27891 03 35 54.09 +08 02 14.8 20.1 r G45 – Space Surveillance Telescope, Atom Site MPS 558192
2014 11 17.28804 03 35 53.54 +08 02 14.1 20.5 r G45 – Space Surveillance Telescope, Atom Site MPS 558192
2014 11 17.29219 03 35 53.34 +08 02 13.5 19.8 r G45 – Space Surveillance Telescope, Atom Site MPS 558192
2014 11 17.29839 03 35 52.95 +08 02 13.0 19.9 r G45 – Space Surveillance Telescope, Atom Site MPS 558192
2014 11 17.34234 03 35 50.43 +08 02 08.6 19.5 V 703 – Catalina Sky Survey MPS 547414
2014 11 17.34686 03 35 50.22 +08 02 08.6 20.8 V 703 – Catalina Sky Survey MPS 547414
